Ouray, CO (81427)

7:59 AM MDT on September 05, 2015 (GMT -0600)
Ouray | | Change Station
CLOSE
Current Station
Personal Weather Station
Location: Ouray, CO
Elevation: 7736 ft
Nearby Weather Stations

Elev 7736 ft 38.03 °N, 107.67 °W | Updated 14 seconds ago

Overcast
Overcast
51.3 °F
Feels Like 51.3 °F
N
2.0
Wind Variable Wind from SSE
Gusts 3.0 mph

Today
High -- | Low -- °F
--% Chance of Precip.
Yesterday
High -- | Low -- °F
Precip. -- in
6:43 AM 7:34 PM
Waning Gibbous, 48% visible
Pressure 30.35 in
Visibility 10.0 miles
Clouds Scattered Clouds 3600 ft
Mostly Cloudy 6000 ft
Overcast 7000 ft
Dew Point 48 °F
Humidity 90%
Rainfall 0.09 in
Snow Depth Not available.
UV 0 out of 12
Pollen 5.90 out of 12
Air Quality Not available.
Flu Activity Not available.
METAR KTEX 051355Z AUTO 14006KT 10SM SCT036 BKN060 OVC070 10/09 A3035 RMK AO2 T00960085
Pressure 30.35 in
Visibility 10.0 miles
Clouds Scattered Clouds 3600 ft
Mostly Cloudy 6000 ft
Overcast 7000 ft
Dew Point 48 °F
Humidity 90%
Rainfall 0.09 in
Snow Depth Not available.
UV 0 out of 12
Pollen 5.90 out of 12
Air Quality Not available.
Flu Activity Not available.
METAR KTEX 051355Z AUTO 14006KT 10SM SCT036 BKN060 OVC070 10/09 A3035 RMK AO2 T00960085

10-Day Weather Forecast

×

Almanac

Astronomy

Sep. 05, 2015 Rise Set
Actual Time
Civil Twilight
Nautical Twilight
Astronomical Twilight
Moon
Length of Visible Light
Length of Day
Tomorrow will be .
, % of the Moon is Illuminated

Today's Extremes

State Highs State Lows

Community

WunderPhotos

Upload Photos

1,852,464 photos uploaded!

WunderBlogs® & News

Nearby

Air Quality

  Air Quality AQ Index Pollutant
Not available.

Snow Depth

Station Depth Elevation

Earthquake Activity

City Distance Mag. Time & Date
Minimum magnitude displayed is 2.5.

Coastal Water Temperatures

Place Temperature

Stations

Nearby Weather Stations

Station Location Temp. Windchill Dew Point Humidity Wind Precip. Elev Updated Type